User: anonymous   Login
Location: Deer Path Park
(40.5570°N, 74.8450°W)
Time: 19:39:42
(UTC-05:00)
Language:

Iridium 49 - Orbit

View from above orbital plane
View from above orbital plane
View from above satellite
View from above satellite

Ground track
Ground track

The orbit data is extracted from the following two-line orbital elements,

1 25108U 97082E   18021.34452432  .00000085  00000-0  23171-4 0  9992
2 25108  86.3987 164.2411 0002125  91.1631 298.4379 14.34215363 51649
Epoch (UTC): 21 January 2018 08:16:06
Eccentricity: 0.0002125
inclination: 86.3987°
perigee height: 776 km
apogee height: 779 km
right ascension of ascending node: 164.2411°
argument of perigee: 91.1631°
revolutions per day: 14.34215363
mean anomaly at epoch: 298.4379°
orbit number at epoch: 5164

The dashed part of the orbit path shows where the satellite is in the earth's shadow,  

DLR